San Antonio, TX

8:03 PM CST on February 20, 2017 (GMT -0600)
Stinson Municipal

Weather History for KSSF - January, 2014

Change the Weather History Date:

Saturday, January 4, 2014

  Actual Average Record
Temperature  
Mean Temperature 57 °F -  
Max Temperature 73 °F 62 °F 79 °F (2005)
Min Temperature 41 °F 39 °F 26 °F (2002)
Degree Days  
Heating Degree Days 8    
Growing Degree Days 7 (Base 50)    
Moisture  
Dew Point 45 °F    
Average Humidity 71    
Maximum Humidity 89    
Minimum Humidity 39    
Precipitation  
Precipitation 0.00 in - - ()
Sea Level Pressure  
Sea Level Pressure 29.97 in    
Wind  
Wind Speed 2 mph (South)    
Max Wind Speed 14 mph    
Max Gust Speed 20 mph    
Visibility 9 miles    
Events      
Averages and records for this station are not official NWS values.
T = Trace of Precipitation, MM = Missing Value Source: NWS Daily Summary

Daily Weather History Graph

Daily Weather History Graph

Search for Another Location

Airport or City:

Trip Planner

Search our weather history database for the weather conditions in past years. The results will help you decide how hot, cold, wet, or windy it might be!

Date:

Astronomy

Jan. 04, 2014 Rise Set
Actual Time 7:28 AM CST 5:49 PM CST
Civil Twilight 7:02 AM CST 6:15 PM CST
Nautical Twilight 6:33 AM CST 6:44 PM CST
Astronomical Twilight 6:04 AM CST 7:13 PM CST
Moon 9:53 AM CST (1/4) 9:49 PM CST (1/4)
Length of Visible Light 11h 12m
Length of Day
10h 20m
Waxing Crescent, 15% of the Moon is Illuminated
Jan 4
Waxing Crescent
Jan 7
First Quarter
Jan 15
Full
Jan 23
Last Quarter
Jan 30
New

Hourly Weather History & Observations

Time (CST) Temp. Dew Point Humidity Pressure Visibility Wind Dir Wind Speed Gust Speed Precip Events Conditions
12:53 AM 43.0 °F 39.0 °F 86% 30.12 in 10.0 mi Calm Calm - N/A   Overcast
1:53 AM 41.0 °F 37.9 °F 89% 30.10 in 9.0 mi Calm Calm - N/A   Clear
2:53 AM 42.1 °F 39.0 °F 89% 30.09 in 9.0 mi Calm Calm - N/A   Overcast
3:50 AM 44.6 °F 39.2 °F 81% 30.06 in 9.0 mi Calm Calm - N/A   Overcast
3:53 AM 44.1 °F 39.9 °F 85% 30.07 in 9.0 mi Calm Calm - N/A   Overcast
4:53 AM 44.1 °F 39.9 °F 85% 30.06 in 8.0 mi Calm Calm - N/A   Overcast
5:05 AM 42.8 °F 39.2 °F 87% 30.05 in 7.0 mi Calm Calm - N/A   Scattered Clouds
5:38 AM 42.8 °F 39.2 °F 87% 30.04 in 6.0 mi Calm Calm - N/A   Mostly Cloudy
5:53 AM 43.0 °F 39.9 °F 89% 30.05 in 7.0 mi Calm Calm - N/A   Mostly Cloudy
6:53 AM 44.1 °F 39.9 °F 85% 30.05 in 8.0 mi Calm Calm - N/A   Mostly Cloudy
7:53 AM 44.1 °F 41.0 °F 89% 30.05 in 6.0 mi Calm Calm - N/A   Mostly Cloudy
8:53 AM 50.0 °F 44.1 °F 80% 30.06 in 7.0 mi Calm Calm - N/A   Partly Cloudy
9:21 AM 51.8 °F 46.4 °F 82% 30.06 in 9.0 mi Calm Calm - N/A   Mostly Cloudy
9:53 AM 55.9 °F 48.0 °F 75% 30.07 in 10.0 mi South 8.1 mph - N/A   Mostly Cloudy
10:53 AM 60.1 °F 48.0 °F 64% 30.04 in 10.0 mi SSW 4.6 mph - N/A   Overcast
11:53 AM 66.0 °F 50.0 °F 56% 29.99 in 10.0 mi SSW 11.5 mph 19.6 mph N/A   Scattered Clouds
12:53 PM 69.1 °F 48.0 °F 47% 29.93 in 10.0 mi South 12.7 mph 19.6 mph N/A   Clear
1:53 PM 70.0 °F 48.0 °F 46% 29.89 in 10.0 mi South 13.8 mph 18.4 mph N/A   Clear
2:53 PM 72.0 °F 48.0 °F 43% 29.85 in 10.0 mi South 11.5 mph 17.3 mph N/A   Clear
3:53 PM 72.0 °F 48.0 °F 43% 29.84 in 10.0 mi South 10.4 mph - N/A   Clear
4:53 PM 73.0 °F 46.9 °F 39% 29.83 in 10.0 mi South 6.9 mph - N/A   Clear
5:53 PM 68.0 °F 46.9 °F 47% 29.84 in 10.0 mi SSE 4.6 mph - N/A   Clear
6:53 PM 63.0 °F 48.0 °F 58% 29.84 in 10.0 mi SE 5.8 mph - N/A   Clear
7:53 PM 59.0 °F 46.9 °F 64% 29.84 in 10.0 mi SSE 3.5 mph - N/A   Clear
8:53 PM 57.0 °F 46.9 °F 69% 29.84 in 10.0 mi SSE 3.5 mph - N/A   Clear
9:53 PM 57.0 °F 48.0 °F 72% 29.84 in 10.0 mi Calm Calm - N/A   Clear
10:53 PM 57.9 °F 51.1 °F 78% 29.83 in 10.0 mi ESE 3.5 mph - N/A   Clear
11:53 PM 55.0 °F 50.0 °F 83% 29.81 in 10.0 mi Calm Calm - N/A   Clear